Location: *
(46.1200°N, 11.2700°E)
Time: 14:38:15
(UTC+00:00)

Cosmos 2237 - Pass Details

Date: 02 March 2021
Orbit: 845 x 856 km, 70.8° (Epoch: 22 April)

Event Time Altitude Azimuth Distance (km) Brightness Sun altitude
Rises 18:18:41 0° 196° (SSW) 3,405 7.5 -13.9°
Reaches altitude 10° 18:21:08 10° 193° (SSW) 2,475 6.7 -14.3°
Maximum altitude 18:26:46 67° 112° (ESE) 925 4.2 -15.3°
Drops below altitude 10° 18:32:28 10° 31° (NNE) 2,497 6.4 -16.3°
Sets 18:34:56 0° 29° (NNE) 3,438 7.2 -16.7°
